Bastrop, LA

9:56 PM CST on November 24, 2017 (GMT -0600)
Bastrop

Weather History for KBQP - August, 2013

Change the Weather History Date:

Monday, August 19, 2013

  Actual Average (KMLU) Record (KMLU)
Temperature  
Mean Temperature 80 °F -  
Max Temperature 94 °F 92 °F 106 °F (2011)
Min Temperature 66 °F 71 °F 64 °F (1927)
Cooling Degree Days 15    
Growing Degree Days 30 (Base 50)    
Moisture  
Dew Point 66 °F    
Average Humidity 67    
Maximum Humidity 93    
Minimum Humidity 32    
Precipitation  
Precipitation 0.00 in - - ()
Sea Level Pressure  
Sea Level Pressure 30.04 in    
Wind  
Wind Speed 0 mph (ENE)    
Max Wind Speed 7 mph    
Max Gust Speed -    
Visibility 8 miles    
Events      
Averages and records for this station are not official NWS values.
T = Trace of Precipitation, MM = Missing Value Source: NWS Daily Summary

Daily Weather History Graph

Daily Weather History Graph

Search for Another Location

Airport or City:

Trip Planner

Search our weather history database for the weather conditions in past years. The results will help you decide how hot, cold, wet, or windy it might be!

Date:

Astronomy

Aug. 19, 2013 Rise Set
Actual Time 6:33 AM CDT 7:47 PM CDT
Civil Twilight 6:08 AM CDT 8:13 PM CDT
Nautical Twilight 5:37 AM CDT 8:44 PM CDT
Astronomical Twilight 5:05 AM CDT 9:15 PM CDT
Moon 6:39 PM CDT (8/19) 4:55 AM CDT (8/19)
Length of Visible Light 14h 05m
Length of Day
13h 13m
Waxing Gibbous, 97% of the Moon is Illuminated
Aug 19
Waxing Gibbous
Aug 20
Full
Aug 28
Last Quarter
Sep 5
New
Sep 12
First Quarter

Hourly Weather History & Observations

Time (CDT) Temp. Heat Index Dew Point Humidity Pressure Visibility Wind Dir Wind Speed Gust Speed Precip Events Conditions
12:15 AM 74.5 °F - 66.9 °F 77% 30.06 in 10.0 mi Calm Calm - N/A   Clear
12:35 AM 73.9 °F - 67.1 °F 79% 30.05 in 10.0 mi Calm Calm - N/A   Clear
12:55 AM 73.4 °F - 67.3 °F 81% 30.05 in 10.0 mi Calm Calm - N/A   Clear
1:15 AM 72.5 °F - 67.5 °F 84% 30.05 in 10.0 mi Calm Calm - N/A   Clear
1:35 AM 71.8 °F - 67.5 °F 86% 30.05 in 10.0 mi Calm Calm - N/A   Clear
1:55 AM 72.0 °F - 67.6 °F 86% 30.05 in 10.0 mi Calm Calm - N/A   Clear
2:15 AM 71.6 °F - 67.6 °F 87% 30.05 in 10.0 mi Calm Calm - N/A   Clear
2:35 AM 70.9 °F - 67.3 °F 88% 30.05 in 10.0 mi Calm Calm - N/A   Clear
2:55 AM 70.7 °F - 67.3 °F 89% 30.05 in 7.0 mi Calm Calm - N/A   Clear
3:15 AM 69.4 °F - 66.7 °F 91% 30.05 in 5.0 mi Calm Calm - N/A   Clear
3:35 AM 69.3 °F - 66.6 °F 91% 30.04 in 7.0 mi Calm Calm - N/A   Clear
3:55 AM 68.9 °F - 66.2 °F 91% 30.05 in 4.0 mi Calm Calm - N/A   Clear
4:15 AM 69.1 °F - 66.6 °F 92% 30.04 in 5.0 mi Calm Calm - N/A   Clear
4:35 AM 68.5 °F - 66.2 °F 92% 30.05 in 3.0 mi Calm Calm - N/A   Clear
4:55 AM 68.0 °F - 65.7 °F 92% 30.05 in 3.0 mi Calm Calm - N/A   Clear
5:15 AM 66.7 °F - 64.4 °F 92% 30.05 in 0.8 mi Calm Calm - N/A   Mist
5:35 AM 67.8 °F - 65.5 °F 92% 30.06 in 2.5 mi Calm Calm - N/A   Clear
5:55 AM 66.9 °F - 64.6 °F 92% 30.06 in 1.5 mi Calm Calm - N/A   Mist
6:15 AM 67.1 °F - 64.8 °F 92% 30.07 in 1.8 mi Calm Calm - N/A   Mist
6:35 AM 66.4 °F - 64.2 °F 93% 30.07 in 1.0 mi Calm Calm - N/A   Mist
6:55 AM 67.3 °F - 65.1 °F 93% 30.07 in 2.5 mi Calm Calm - N/A   Clear
7:15 AM 67.5 °F - 65.3 °F 93% 30.07 in 3.0 mi Calm Calm - N/A   Clear
7:35 AM 69.1 °F - 66.9 °F 93% 30.08 in 2.5 mi Calm Calm - N/A   Mist
7:55 AM 71.4 °F - 69.1 °F 92% 30.08 in 4.0 mi Calm Calm - N/A   Clear
8:15 AM 73.4 °F - 69.8 °F 88% 30.08 in 7.0 mi Calm Calm - N/A   Clear
8:35 AM 75.7 °F - 70.2 °F 83% 30.08 in 10.0 mi Calm Calm - N/A   Clear
8:55 AM 77.2 °F - 70.0 °F 78% 30.09 in 10.0 mi Calm Calm - N/A   Clear
9:15 AM 79.7 °F - 69.4 °F 71% 30.09 in 10.0 mi Calm Calm - N/A   Clear
9:35 AM 81.1 °F 84.4 °F 69.4 °F 67% 30.09 in 10.0 mi Calm Calm - N/A   Clear
9:55 AM 81.9 °F 85.2 °F 69.3 °F 65% 30.10 in 10.0 mi Calm Calm - N/A   Clear
10:15 AM 82.6 °F 86.1 °F 69.1 °F 64% 30.10 in 10.0 mi Calm Calm - N/A   Scattered Clouds
10:35 AM 83.7 °F 87.2 °F 68.9 °F 61% 30.10 in 10.0 mi Calm Calm - N/A   Scattered Clouds
10:55 AM 84.4 °F 87.3 °F 67.8 °F 57% 30.09 in 10.0 mi Calm Calm - N/A   Clear
11:15 AM 85.3 °F 88.5 °F 67.8 °F 56% 30.09 in 10.0 mi Calm Calm - N/A   Scattered Clouds
11:35 AM 87.8 °F 90.7 °F 67.3 °F 50% 30.08 in 10.0 mi Calm Calm - N/A   Scattered Clouds
11:55 AM 87.3 °F 89.8 °F 66.4 °F 50% 30.08 in 10.0 mi Calm Calm - N/A   Mostly Cloudy
12:15 PM 89.4 °F 91.9 °F 65.8 °F 46% 30.08 in 10.0 mi East 3.5 mph - N/A   Scattered Clouds
12:35 PM 87.4 °F 89.1 °F 65.1 °F 47% 30.07 in 10.0 mi Calm Calm - N/A   Scattered Clouds
12:55 PM 88.5 °F 90.5 °F 65.3 °F 46% 30.07 in 10.0 mi Calm Calm - N/A   Scattered Clouds
1:15 PM 89.6 °F 91.1 °F 64.6 °F 43% 30.06 in 10.0 mi East 3.5 mph - N/A   Scattered Clouds
1:35 PM 89.4 °F 91.2 °F 64.9 °F 44% 30.05 in 10.0 mi ENE 6.9 mph - N/A   Scattered Clouds
1:55 PM 90.5 °F 91.4 °F 62.8 °F 40% 30.05 in 10.0 mi Calm Calm - N/A   Scattered Clouds
2:15 PM 89.6 °F 90.8 °F 63.5 °F 42% 30.04 in 10.0 mi Calm Calm - N/A   Mostly Cloudy
2:35 PM 90.7 °F 91.7 °F 63.5 °F 40% 30.03 in 10.0 mi Calm Calm - N/A   Mostly Cloudy
2:55 PM 91.4 °F 92.1 °F 62.4 °F 38% 30.02 in 10.0 mi Calm Calm - N/A   Scattered Clouds
3:15 PM 92.3 °F 93.1 °F 62.2 °F 37% 30.01 in 10.0 mi Calm Calm - N/A   Scattered Clouds
3:35 PM 93.2 °F 93.3 °F 61.2 °F 34% 30.00 in 10.0 mi North 4.6 mph - N/A   Scattered Clouds
3:55 PM 93.6 °F 93.8 °F 61.3 °F 34% 30.00 in 10.0 mi Calm Calm - N/A   Scattered Clouds
4:15 PM 94.6 °F 95.5 °F 61.9 °F 34% 29.99 in 10.0 mi ENE 4.6 mph - N/A   Scattered Clouds
4:35 PM 90.7 °F 90.7 °F 61.0 °F 37% 29.99 in 10.0 mi Calm Calm - N/A   Scattered Clouds
4:55 PM 93.2 °F 93.3 °F 60.8 °F 34% 29.99 in 10.0 mi Calm Calm - N/A   Clear
5:15 PM 93.6 °F 93.1 °F 59.7 °F 32% 29.99 in 10.0 mi Calm Calm - N/A   Clear
5:35 PM 88.5 °F 88.9 °F 62.1 °F 41% 29.99 in 10.0 mi Calm Calm - N/A   Clear
5:55 PM 91.8 °F 91.9 °F 61.5 °F 36% 29.99 in 10.0 mi Calm Calm - N/A   Clear
6:15 PM 90.9 °F 90.9 °F 61.5 °F 37% 29.99 in 10.0 mi Calm Calm - N/A   Clear
6:35 PM 90.5 °F 91.4 °F 62.8 °F 40% 29.99 in 10.0 mi Calm Calm - N/A   Clear
6:55 PM 88.9 °F 90.0 °F 63.5 °F 43% 29.99 in 10.0 mi Calm Calm - N/A   Clear
7:15 PM 86.9 °F 88.1 °F 63.7 °F 46% 30.00 in 10.0 mi Calm Calm - N/A   Clear
7:35 PM 84.6 °F 86.1 °F 64.8 °F 51% 30.00 in 10.0 mi Calm Calm - N/A   Scattered Clouds
7:55 PM 80.4 °F 82.6 °F 66.4 °F 62% 30.01 in 10.0 mi Calm Calm - N/A   Scattered Clouds
8:15 PM 79.0 °F - 66.0 °F 64% 30.01 in 10.0 mi Calm Calm - N/A   Clear
8:35 PM 78.1 °F - 66.6 °F 68% 30.01 in 10.0 mi Calm Calm - N/A   Clear
8:55 PM 76.6 °F - 67.1 °F 72% 30.02 in 10.0 mi Calm Calm - N/A   Clear
9:15 PM 76.6 °F - 67.5 °F 73% 30.02 in 10.0 mi Calm Calm - N/A   Clear
9:35 PM 75.9 °F - 67.6 °F 75% 30.03 in 10.0 mi Calm Calm - N/A   Clear
9:55 PM 75.4 °F - 68.0 °F 78% 30.03 in 10.0 mi Calm Calm - N/A   Clear
10:15 PM 75.6 °F - 68.2 °F 78% 30.03 in 10.0 mi Calm Calm - N/A   Clear
10:35 PM 74.5 °F - 68.2 °F 81% 30.03 in 10.0 mi Calm Calm - N/A   Clear
10:55 PM 74.1 °F - 68.2 °F 82% 30.02 in 10.0 mi Calm Calm - N/A   Clear
11:15 PM 72.7 °F - 68.0 °F 85% 30.03 in 10.0 mi Calm Calm - N/A   Clear
11:35 PM 73.4 °F - 68.2 °F 84% 30.03 in 10.0 mi Calm Calm - N/A   Clear
11:55 PM 72.0 °F - 67.5 °F 86% 30.03 in 10.0 mi Calm Calm - N/A   Clear